Raleigh, WV (25911)

6:53 AM EDT on April 25, 2017 (GMT -0400)
Sprague | | Change Station

Elev 2459 ft 37.79 °N, 81.18 °W | Updated 31 seconds ago

Overcast
Overcast
51.4 °F
Feels Like 51.4 °F
N
0.0
Wind Variable Wind from East

Today
High -- | Low -- °F
--% Chance of Precip.
Yesterday
High -- | Low -- °F
Precip. -- in
Pressure 29.75 in
Visibility 10.0 miles
Clouds Mostly Cloudy 1000 ft
Overcast 1500 ft
Dew Point 48 °F
Humidity 91%
Rainfall 0.00 in
Snow Depth Not available.
6:35 AM 8:09 PM
Waning Crescent, 2% visible
METAR KBKW 250951Z AUTO 05006KT 10SM BKN010 OVC015 11/09 A2977 RMK AO2 RAE0859 SLP072 P0000 T01110094 TSNO
Pressure 29.75 in
Visibility 10.0 miles
Clouds Mostly Cloudy 1000 ft
Overcast 1500 ft
Dew Point 48 °F
Humidity 91%
Rainfall 0.00 in
Snow Depth Not available.
6:35 AM 8:09 PM
Waning Crescent, 2% visible
METAR KBKW 250951Z AUTO 05006KT 10SM BKN010 OVC015 11/09 A2977 RMK AO2 RAE0859 SLP072 P0000 T01110094 TSNO

Get Severe Weather Alerts

Thanks for signing up!

Be on the lookout for a verification email in your inbox.

You'll start receiving the daily forecast at 8 AM.

×

10-Day Weather Forecast

Almanac

Astronomy

Apr. 25, 2017 Rise Set
Actual Time
Civil Twilight
Nautical Twilight
Astronomical Twilight
Moon
Length of Visible Light
Length of Day
Tomorrow will be .
, % of the Moon is Illuminated

Today's Extremes

State Highs State Lows

Community

WunderPhotos

WunderBlog® & News

Nearby

Air Quality

  Air Quality AQ Index Pollutant
Not available.

Snow Depth

Station Depth Elevation

Earthquake Activity

City Distance Mag. Time & Date
Minimum magnitude displayed is 2.5.

Coastal Water Temperatures

Place Temperature

Stations

Nearby Weather Stations

Station Location Temp. Windchill Dew Point Humidity Wind Precip. Elev Updated Type
                   

Watches & Warnings

There are currently no watches in effect.